{"data":{"norad_id":65187,"epoch":"2026-05-25T03:17:59.947296Z","epoch_age_seconds":66322,"freshness":"FRESH","line1":"1 65187U 25175P   26145.13749939  .00006355  00000+0  44401-3 0  9994","line2":"2 65187  97.4486  17.6337 0001971  92.0307 268.1146 15.05659106 44142","mean_motion":15.05659106,"eccentricity":0.0001971,"inclination_deg":97.4486,"raan_deg":17.6337,"arg_perigee_deg":92.0307,"mean_anomaly_deg":268.1146,"bstar":0.00044401,"rev_number":4414,"period_min":95.639178500741,"perigee_km":548.11778848183,"apogee_km":550.84865637351,"semimajor_km":6927.6202224277,"source":"CELESTRAK","updated_at":"2026-05-25T13:38:20.714682Z"}}